Simultaneous Nadir Overpasses (SNOs) Predictions

Prediction of SNOs between GOES-15 and METOP-B Satellite Orbit:

Table of predicted SNOs for the next 14.0 days since TLE Epoch: 3/29/2019
Index Date Time (GOES-15) GOES-15 Lat,Lon METOP-B Lat,Lon Distance(km) Time Diff (sec)
1 03/29/2019 17:49:15 -0.01,-128.15 -0.76,-124.78 384.00 80
2 03/31/2019 06:05:37 0.02,-128.13 -0.25,-129.38 141.97 80
3 04/01/2019 05:47:37 0.02,-128.11 0.83,-124.38 424.48 80
4 04/02/2019 18:03:50 -0.02,-128.05 0.19,-128.94 101.41 80
5 04/03/2019 17:45:51 -0.02,-128.03 -0.95,-123.95 464.97 80
6 04/05/2019 06:02:11 0.02,-128.00 -0.12,-128.54 61.54 80
7 04/07/2019 18:00:25 -0.02,-127.91 0.00,-128.11 22.40 80
8 04/10/2019 06:01:27 0.03,-127.84 0.06,-127.71 15.28 80




NCC Satellite Simultaneous Nadir Overpasses (SNOs) Prediction Service
